Weather History for Cut Bank, MT

Change the Weather History Date:

Monday, February 25, 2013

  Actual Average Record
Temperature  
Mean Temperature 31 °F 26 °F  
Max Temperature 37 °F 37 °F 60 °F (1992)
Min Temperature 24 °F 15 °F -35 °F (2011)
Degree Days  
Heating Degree Days 34 39  
Month to date heating degree days 872 1026  
Since 1 July heating degree days 5635 5944  
Cooling Degree Days 0 0  
Month to date cooling degree days 0 0  
Year to date cooling degree days 0 0  
Moisture  
Dew Point 20 °F    
Average Humidity 62    
Maximum Humidity 75    
Minimum Humidity 48    
Precipitation  
Precipitation 0.00 in 0.01 in 0.30 in (1904)
Month to date precipitation 0.31 0.18  
Year to date precipitation 0.73 0.38  
Snow  
Snow 0.00 in - - ()
Snow Depth 0.00 in    
Sea Level Pressure  
Sea Level Pressure 29.81 in    
Wind  
Wind Speed 21 mph (WSW)    
Max Wind Speed 32 mph    
Max Gust Speed 40 mph    
Visibility 10 miles    
Events      
T = Trace of Precipitation, MM = Missing Value Source: NWS Daily Summary

Daily Weather History Graph

Daily Weather History Graph

Search for Another Location

Airport:

Trip Planner

Search our weather history database for the weather conditions in past years. The results will help you decide how hot, cold, wet, or windy it might be!

Date:

Astronomy

Feb. 25, 2013 Rise Set
Actual Time 7:18 AM MST 6:07 PM MST
Civil Twilight 6:46 AM MST 6:39 PM MST
Nautical Twilight 6:10 AM MST 7:15 PM MST
Astronomical Twilight 5:33 AM MST 7:52 PM MST
Moon 6:30 PM MST (2/25) 6:47 AM MST (2/25)
Length of Visible Light 11h 52m
Length of Day
10h 49m
Full, 100% of the Moon is Illuminated
Feb 25
Full
Feb 25
Full
Mar 4
Last Quarter
Mar 11
New
Mar 19
First Quarter

Hourly Weather History & Observations

Time (MST) Temp. Windchill Dew Point Humidity Pressure Visibility Wind Dir Wind Speed Gust Speed Precip Events Conditions
12:56 AM 30.9 °F 16.7 °F 18.0 °F 59% 29.91 in 10.0 mi WSW 27.6 mph 32.2 mph N/A   Scattered Clouds
1:56 AM 30.0 °F 15.7 °F 18.0 °F 61% 29.89 in 10.0 mi WSW 26.5 mph 31.1 mph N/A   Clear
2:56 AM 30.9 °F 19.1 °F 18.0 °F 59% 29.88 in 10.0 mi West 18.4 mph 26.5 mph N/A   Clear
3:56 AM 32.0 °F 18.9 °F 19.0 °F 59% 29.84 in 10.0 mi West 24.2 mph 33.4 mph N/A   Clear
4:56 AM 30.9 °F 18.1 °F 19.0 °F 61% 29.83 in 10.0 mi WSW 21.9 mph 28.8 mph N/A   Clear
5:56 AM 32.0 °F 18.6 °F 19.0 °F 59% 29.83 in 10.0 mi WSW 25.3 mph 31.1 mph N/A   Clear
6:56 AM 33.1 °F 18.9 °F 19.0 °F 56% 29.81 in 10.0 mi WSW 31.1 mph 38.0 mph N/A   Clear
7:56 AM 33.1 °F 20.9 °F 19.0 °F 56% 29.80 in 10.0 mi WSW 21.9 mph 32.2 mph N/A   Clear
8:56 AM 34.0 °F 22.7 °F 19.9 °F 56% 29.79 in 10.0 mi WSW 19.6 mph 27.6 mph N/A   Clear
9:56 AM 36.0 °F 24.2 °F 19.9 °F 52% 29.77 in 10.0 mi WSW 24.2 mph 32.2 mph N/A   Mostly Cloudy
10:56 AM 37.0 °F 28.5 °F 19.9 °F 50% 29.75 in 10.0 mi SW 13.8 mph - N/A   Overcast
11:56 AM 37.0 °F 26.7 °F 19.9 °F 50% 29.74 in 10.0 mi SW 19.6 mph 27.6 mph N/A   Mostly Cloudy
12:56 PM 37.0 °F 26.2 °F 19.9 °F 50% 29.74 in 10.0 mi WSW 21.9 mph 28.8 mph N/A   Mostly Cloudy
1:56 PM 36.0 °F 24.4 °F 19.9 °F 52% 29.74 in 10.0 mi WSW 23.0 mph 33.4 mph N/A   Mostly Cloudy
2:56 PM 36.0 °F 25.0 °F 21.0 °F 55% 29.75 in 10.0 mi West 20.7 mph 28.8 mph N/A   Partly Cloudy
3:56 PM 37.0 °F 25.4 °F 19.9 °F 50% 29.75 in 10.0 mi WSW 25.3 mph 31.1 mph N/A   Partly Cloudy
4:56 PM 35.1 °F 24.8 °F 21.0 °F 57% 29.78 in 10.0 mi WSW 17.3 mph 27.6 mph N/A   Clear
5:56 PM 35.1 °F 22.7 °F 19.0 °F 52% 29.77 in 10.0 mi West 25.3 mph - N/A   Clear
6:56 PM 32.0 °F 18.9 °F 21.0 °F 64% 29.80 in 10.0 mi WSW 24.2 mph 29.9 mph N/A   Clear
7:56 PM 30.0 °F 17.9 °F 21.9 °F 72% 29.82 in 10.0 mi WSW 18.4 mph 28.8 mph N/A   Clear
8:56 PM 30.0 °F 16.9 °F 19.9 °F 66% 29.83 in 10.0 mi WSW 21.9 mph 28.8 mph N/A   Mostly Cloudy
9:56 PM 28.9 °F 17.7 °F 21.0 °F 72% 29.85 in 10.0 mi West 15.0 mph - N/A   Mostly Cloudy
10:56 PM 26.1 °F 16.2 °F 19.9 °F 78% 29.88 in 10.0 mi West 10.4 mph - N/A   Scattered Clouds
11:56 PM 27.0 °F 17.3 °F 19.9 °F 75% 29.90 in 10.0 mi NW 10.4 mph - N/A   Overcast